Watford City, ND

12:25 PM CDT on July 22, 2017 (GMT -0500)
Watford City

Weather History for KS25 - September, 2012

Change the Weather History Date:

Tuesday, September 11, 2012

  Actual Average (KISN) Record (KISN)
Temperature  
Mean Temperature 56 °F -  
Max Temperature 68 °F 72 °F 94 °F (1939)
Min Temperature 44 °F 47 °F 24 °F (1964)
Degree Days  
Heating Degree Days 9    
Growing Degree Days 6 (Base 50)    
Moisture  
Dew Point 29 °F    
Average Humidity 31    
Maximum Humidity 51    
Minimum Humidity 18    
Precipitation  
Precipitation 0.00 in - - ()
Sea Level Pressure  
Sea Level Pressure 29.88 in    
Wind  
Wind Speed 11 mph (WNW)    
Max Wind Speed 22 mph    
Max Gust Speed 31 mph    
Visibility 10 miles    
Events      
Averages and records for this station are not official NWS values.
T = Trace of Precipitation, MM = Missing Value Source: NWS Daily Summary

Daily Weather History Graph

Daily Weather History Graph

Search for Another Location

Airport or City:

Trip Planner

Search our weather history database for the weather conditions in past years. The results will help you decide how hot, cold, wet, or windy it might be!

Date:

Astronomy

Sep. 11, 2012 Rise Set
Actual Time 7:25 AM CDT 8:12 PM CDT
Civil Twilight 6:54 AM CDT 8:43 PM CDT
Nautical Twilight 6:16 AM CDT 9:20 PM CDT
Astronomical Twilight 5:37 AM CDT 9:59 PM CDT
Moon 2:28 AM CDT (9/11) 5:38 PM CDT (9/11)
Length of Visible Light 13h 49m
Length of Day
12h 46m
Waning Crescent, 21% of the Moon is Illuminated
Sep 11
Waning Crescent
Sep 15
New
Sep 22
First Quarter
Sep 29
Full
Oct 8
Last Quarter

Hourly Weather History & Observations

Time (CDT) Temp. Windchill Dew Point Humidity Pressure Visibility Wind Dir Wind Speed Gust Speed Precip Events Conditions
12:15 AM 68.0 °F - 41.0 °F 37% 29.67 in 10.0 mi South 10.4 mph - N/A   Clear
12:35 AM 66.2 °F - 44.6 °F 46% 29.69 in 10.0 mi WSW 8.1 mph - N/A   Clear
12:55 AM 68.0 °F - 41.0 °F 37% 29.73 in 10.0 mi NNW 15.0 mph 25.3 mph N/A   Scattered Clouds
1:15 AM 68.0 °F - 42.8 °F 40% 29.72 in 10.0 mi West 8.1 mph - N/A   Partly Cloudy
1:35 AM 68.0 °F - 35.6 °F 30% 29.72 in 10.0 mi NNW 3.5 mph - N/A   Clear
1:55 AM 66.2 °F - 35.6 °F 32% 29.71 in 10.0 mi NNW 9.2 mph - N/A   Clear
2:15 AM 64.4 °F - 32.0 °F 30% 29.73 in 10.0 mi NNW 9.2 mph - N/A   Clear
2:35 AM 66.2 °F - 32.0 °F 28% 29.74 in 10.0 mi NNW 13.8 mph - N/A   Clear
2:55 AM 66.2 °F - 32.0 °F 28% 29.77 in 10.0 mi WNW 11.5 mph 16.1 mph N/A   Partly Cloudy
3:15 AM 66.2 °F - 32.0 °F 28% 29.77 in 10.0 mi NNW 13.8 mph 24.2 mph N/A   Partly Cloudy
3:35 AM 64.4 °F - 32.0 °F 30% 29.78 in 10.0 mi NW 10.4 mph 21.9 mph N/A   Clear
3:55 AM 62.6 °F - 32.0 °F 32% 29.78 in 10.0 mi NNW 10.4 mph - N/A   Clear
4:15 AM 62.6 °F - 32.0 °F 32% 29.78 in 10.0 mi NNW 12.7 mph - N/A   Clear
4:35 AM 62.6 °F - 32.0 °F 32% 29.82 in 10.0 mi NW 12.7 mph 17.3 mph N/A   Scattered Clouds
4:55 AM 62.6 °F - 32.0 °F 32% 29.81 in 10.0 mi NNW 19.6 mph 24.2 mph N/A   Partly Cloudy
5:15 AM 60.8 °F - 32.0 °F 34% 29.80 in 10.0 mi NNW 16.1 mph 21.9 mph N/A   Clear
5:35 AM 59.0 °F - 32.0 °F 36% 29.80 in 10.0 mi NNW 11.5 mph - N/A   Clear
5:55 AM 57.2 °F - 32.0 °F 38% 29.81 in 10.0 mi NNW 9.2 mph - N/A   Clear
6:15 AM 55.4 °F - 32.0 °F 41% 29.82 in 10.0 mi NW 9.2 mph - N/A   Clear
6:35 AM 55.4 °F - 33.8 °F 44% 29.83 in 10.0 mi NW 9.2 mph - N/A   Clear
6:55 AM 55.4 °F - 33.8 °F 44% 29.84 in 10.0 mi NNW 9.2 mph - N/A   Partly Cloudy
7:15 AM 55.4 °F - 35.6 °F 47% 29.85 in 10.0 mi NW 8.1 mph - N/A   Clear
7:35 AM 53.6 °F - 35.6 °F 51% 29.85 in 10.0 mi NW 6.9 mph - N/A   Partly Cloudy
7:55 AM 53.6 °F - 35.6 °F 51% 29.86 in 10.0 mi NW 8.1 mph - N/A   Partly Cloudy
8:15 AM 53.6 °F - 35.6 °F 51% 29.87 in 10.0 mi NW 8.1 mph - N/A   Scattered Clouds
8:35 AM 53.6 °F - 35.6 °F 51% 29.87 in 10.0 mi NNW 13.8 mph 18.4 mph N/A   Mostly Cloudy
8:55 AM 53.6 °F - 33.8 °F 47% 29.89 in 10.0 mi NNW 13.8 mph 20.7 mph N/A   Mostly Cloudy
9:15 AM 53.6 °F - 33.8 °F 47% 29.89 in 10.0 mi NW 13.8 mph - N/A   Mostly Cloudy
9:35 AM 53.6 °F - 33.8 °F 47% 29.90 in 10.0 mi NNW 11.5 mph - N/A   Partly Cloudy
9:55 AM 55.4 °F - 33.8 °F 44% 29.91 in 10.0 mi NNW 12.7 mph - N/A   Partly Cloudy
10:15 AM 53.6 °F - 33.8 °F 47% 29.91 in 10.0 mi NW 11.5 mph 17.3 mph N/A   Partly Cloudy
10:35 AM 55.4 °F - 32.0 °F 41% 29.91 in 10.0 mi NW 12.7 mph - N/A   Partly Cloudy
10:55 AM 57.2 °F - 32.0 °F 38% 29.91 in 10.0 mi NW 10.4 mph - N/A   Partly Cloudy
11:15 AM 57.2 °F - 32.0 °F 38% 29.92 in 10.0 mi NW 12.7 mph - N/A   Partly Cloudy
11:35 AM 59.0 °F - 32.0 °F 36% 29.93 in 10.0 mi NW 8.1 mph - N/A   Clear
11:55 AM 60.8 °F - 28.4 °F 29% 29.93 in 10.0 mi NW 10.4 mph - N/A   Clear
12:15 PM 62.6 °F - 28.4 °F 27% 29.92 in 10.0 mi WNW 10.4 mph - N/A   Clear
12:35 PM 62.6 °F - 26.6 °F 26% 29.92 in 10.0 mi NW 12.7 mph - N/A   Clear
12:55 PM 64.4 °F - 26.6 °F 24% 29.92 in 10.0 mi WNW 12.7 mph 23.0 mph N/A   Clear
1:15 PM 64.4 °F - 26.6 °F 24% 29.91 in 10.0 mi WNW 17.3 mph 24.2 mph N/A   Clear
1:35 PM 64.4 °F - 24.8 °F 22% 29.91 in 10.0 mi WNW 16.1 mph 23.0 mph N/A   Clear
1:55 PM 64.4 °F - 24.8 °F 22% 29.91 in 10.0 mi WNW 15.0 mph 20.7 mph N/A   Clear
2:15 PM 66.2 °F - 24.8 °F 21% 29.91 in 10.0 mi WNW 13.8 mph 24.2 mph N/A   Clear
2:35 PM 66.2 °F - 23.0 °F 19% 29.91 in 10.0 mi WNW 15.0 mph 21.9 mph N/A   Clear
2:55 PM 66.2 °F - 23.0 °F 19% 29.91 in 10.0 mi West 12.7 mph 23.0 mph N/A   Clear
3:15 PM 66.2 °F - 24.8 °F 21% 29.91 in 10.0 mi WSW 17.3 mph 21.9 mph N/A   Clear
3:35 PM 68.0 °F - 23.0 °F 18% 29.91 in 10.0 mi WNW 18.4 mph 24.2 mph N/A   Clear
3:55 PM 68.0 °F - 23.0 °F 18% 29.91 in 10.0 mi West 17.3 mph 26.5 mph N/A   Clear
4:15 PM 66.2 °F - 24.8 °F 21% 29.90 in 10.0 mi WNW 21.9 mph 31.1 mph N/A   Clear
4:35 PM 68.0 °F - 24.8 °F 20% 29.90 in 10.0 mi WNW 17.3 mph 25.3 mph N/A   Clear
4:55 PM 68.0 °F - 24.8 °F 20% 29.90 in 10.0 mi WNW 13.8 mph 21.9 mph N/A   Clear
5:15 PM 68.0 °F - 24.8 °F 20% 29.91 in 10.0 mi WNW 16.1 mph 23.0 mph N/A   Clear
5:35 PM 68.0 °F - 23.0 °F 18% 29.91 in 10.0 mi NW 19.6 mph 29.9 mph N/A   Clear
5:55 PM 66.2 °F - 23.0 °F 19% 29.92 in 10.0 mi WNW 15.0 mph 26.5 mph N/A   Clear
6:15 PM 66.2 °F - 23.0 °F 19% 29.92 in 10.0 mi NW 18.4 mph 27.6 mph N/A   Clear
6:35 PM 66.2 °F - 23.0 °F 19% 29.93 in 10.0 mi West 17.3 mph 27.6 mph N/A   Clear
6:55 PM 64.4 °F - 23.0 °F 21% 29.93 in 10.0 mi WNW 17.3 mph 24.2 mph N/A   Clear
7:15 PM 64.4 °F - 23.0 °F 21% 29.93 in 10.0 mi WNW 13.8 mph 17.3 mph N/A   Clear
7:35 PM 64.4 °F - 23.0 °F 21% 29.94 in 10.0 mi WNW 10.4 mph 16.1 mph N/A   Partly Cloudy
7:55 PM 62.6 °F - 23.0 °F 22% 29.94 in 10.0 mi WNW 15.0 mph - N/A   Partly Cloudy
8:15 PM 62.6 °F - 23.0 °F 22% 29.95 in 10.0 mi West 9.2 mph 17.3 mph N/A   Clear
8:35 PM 59.0 °F - 23.0 °F 25% 29.96 in 10.0 mi West 8.1 mph - N/A   Clear
8:55 PM 57.2 °F - 21.2 °F 25% 29.97 in 10.0 mi West 8.1 mph - N/A   Clear
9:15 PM 55.4 °F - 21.2 °F 26% 29.98 in 10.0 mi West 8.1 mph - N/A   Clear
9:35 PM 55.4 °F - 19.4 °F 25% 30.00 in 10.0 mi West 8.1 mph - N/A   Clear
9:55 PM 51.8 °F - 19.4 °F 28% 30.01 in 10.0 mi West 8.1 mph - N/A   Clear
10:15 PM 50.0 °F - 19.4 °F 30% 30.02 in 10.0 mi West 9.2 mph - N/A   Clear
10:35 PM 48.2 °F - 19.4 °F 32% 30.03 in 10.0 mi West 6.9 mph - N/A   Clear
10:55 PM 50.0 °F - 19.4 °F 30% 30.04 in 10.0 mi WNW 6.9 mph - N/A   Clear
11:35 PM 44.6 °F 42.2 °F 19.4 °F 37% 30.06 in 10.0 mi SW 4.6 mph - N/A   Clear
11:55 PM 44.6 °F 40.7 °F 17.6 °F 34% 30.06 in 10.0 mi SW 6.9 mph - N/A   Clear